Flag for Taiwan Weather past 2 weeks in Taichung, Taiwan

Now
79 °F

Passing clouds.


Feels Like: 82 °F
Forecast: 79 / 93 °F
Wind: 7 mph from Southwest

Location: Chiang Kai Shek

Current Time: Sep 2, 2014 at 3:06:18 AM

Latest Report: Sep 2, 2014 at 2:00 AM


Visibility: N/A

Pressure: 29.86 "Hg

Humidity: 89%

Dew point: 75 °F

Location of TaichungLocation

Historic Weather in Taichung — Graph

°F

Taichung temperature yesterday

Maximum temperature yesterday: 93 °F (at 11:00 AM)
Minimum temperature yesterday: 79 °F (at 2:30 AM)
Average temperature yesterday: 85 °F

Past Weeks' High & Low Weather Summary

 TemperatureHumidityPressure
High95 °F (Aug 29, 2:30 PM)94% (Aug 18, 7:30 PM)29.95 "Hg (Aug 18, 7:30 PM)
Low75 °F (Aug 18, 6:56 PM)49% (Aug 23, 2:30 PM)29.74 "Hg (Aug 18, 3:30 PM)
Average85 °F74%29.84 "Hg
* Reported Aug 18 1:00 AM — Sep 2 1:30 AM, Taichung, Weather by CustomWeather, © 2014

Note: Actual official high and low records may vary slightly from our data, if they occured in-between our weather recording intervals... More about our weather records

Advertising

Taichung weather history for previous 24 hours

 ConditionsComfort  
Time TempWeatherWind HumidityBarometerVisibility
1:30 AM
Sep 2
81 °FPassing clouds.7 mph89%29.86 "HgN/A
1:00 AM81 °FPassing clouds.6 mph89%29.86 "HgN/A
12:00 AM81 °FPassing clouds.3 mph89%29.86 "HgN/A
11:30 PM
Sep 1
81 °FPassing clouds.5 mph89%29.89 "HgN/A
11:00 PM81 °FPassing clouds.6 mph89%29.86 "HgN/A
10:30 PM81 °FPassing clouds.6 mph89%29.86 "HgN/A
10:00 PM81 °FPassing clouds.3 mph84%29.86 "HgN/A
9:30 PM81 °FPassing clouds.3 mph89%29.86 "HgN/A
9:00 PM82 °FPassing clouds.5 mph79%29.86 "HgN/A
8:30 PM82 °FPassing clouds.2 mph84%29.86 "HgN/A
8:00 PM82 °FPassing clouds.2 mph84%29.83 "HgN/A
7:30 PM82 °FPassing clouds.2 mph84%29.83 "HgN/A
7:00 PM82 °FPassing clouds.2 mph84%29.83 "HgN/A
6:30 PM84 °FPassing clouds.5 mph74%29.83 "HgN/A
6:00 PM86 °FScattered clouds.6 mph70%29.80 "HgN/A
5:30 PM88 °FScattered clouds.7 mph66%29.80 "HgN/A
5:00 PM88 °FScattered clouds.8 mph66%29.80 "HgN/A
4:30 PM88 °FScattered clouds.8 mph66%29.80 "HgN/A
4:00 PM90 °FScattered clouds.10 mph59%29.80 "HgN/A
3:30 PM90 °FScattered clouds.10 mph63%29.80 "HgN/A
3:00 PM90 °FScattered clouds.12 mph63%29.80 "HgN/A
2:30 PM90 °FScattered clouds.14 mph67%29.80 "HgN/A
2:00 PM90 °FPartly sunny.15 mph67%29.80 "HgN/A
1:30 PM90 °FPartly sunny.14 mph63%29.80 "HgN/A
1:00 PM90 °FScattered clouds.14 mph63%29.83 "HgN/A
12:30 PM91 °FScattered clouds.14 mph59%29.83 "HgN/A
12:00 PM91 °FScattered clouds.15 mph59%29.83 "HgN/A
11:30 AM91 °FScattered clouds.13 mph59%29.83 "HgN/A
11:00 AM93 °FScattered clouds.13 mph56%29.83 "HgN/A
10:30 AM91 °FPassing clouds.8 mph52%29.86 "HgN/A
10:00 AM91 °FPassing clouds.8 mph52%29.86 "HgN/A
9:30 AM90 °FPassing clouds.10 mph55%29.86 "HgN/A
9:00 AM90 °FScattered clouds.9 mph63%29.89 "HgN/A
8:30 AM88 °FPassing clouds.9 mph62%29.89 "HgN/A
8:00 AM86 °FPassing clouds.10 mph70%29.89 "HgN/A
7:30 AM84 °FPassing clouds.9 mph74%29.89 "Hg6 mi
7:00 AM82 °FPassing clouds.8 mph74%29.86 "Hg6 mi
6:30 AM81 °FPassing clouds.8 mph79%29.86 "Hg4 mi
6:00 AM81 °FPartly sunny.7 mph79%29.86 "Hg4 mi
5:00 AM79 °FPassing clouds.6 mph84%29.86 "Hg4 mi
4:30 AM81 °FPassing clouds.7 mph84%29.86 "Hg4 mi
4:00 AM81 °FFog.6 mph79%29.86 "Hg3 mi
3:55 AM81 °FFog.6 mph79%29.86 "Hg3 mi
3:00 AM79 °FFog.6 mph89%29.86 "Hg2 mi
Weather by CustomWeather, © 2014

See weather overviewHow to use our weather pages